STARLINK-2737 (48675 NORAD) Tracking and Keplerian Element Data

This shows tracking and keplerian element data for the satellite.

Feedback or suggestion? Click here.




ElementValue
Catalog48675
NameSTARLINK-2737
Epoch Orbit364
Epoch Day210.91668981
Epoch Year2021
RAAN110.7184
Inclination53.0438
Eccentricity0.0001421
Argument of Perigee64.8872
Mean Anonmoly65.6206
Mean Motion15.20593631
Decay Rate-0.0093251
L11 48675U 21044AP 21210.91668981 -.00932510 00000-0 -45396-1 0 9995
L22 48675 53.0438 110.7184 0001421 64.8872 65.6206 15.20593631 3643

Live tracking and technical data element details for STARLINK-2737 (NORAD 48675). STARLINK-2737 can be tracked NOW for your location showing map with azimuth and elevation plus other details from your city location.

Track the satellite on the map from your city or location and see movement details for azimuth, elevation, latitude, longitude, range, height, and movement on the map or in text.







IsCatalogInMostPopularTable: catalog: 48675, numindb: 18
Update: records affected: 1



GetName: 48675 STARLINK-2737

Hit Count: updated at: Sat, 31 Jul 2021 16:23:19 GMT